FDX11 EBBR-LSZH

Flight info

Callsign FDX11
Flight time N/A
Altitude 35000
Route ROUSY DCT GTQ DCT BAMEV DCT BLM
Aircraft B77L/H-SDE2E3GHIJ4J5M1P2RWXY/LB1D1

Departure

Time 2026-05-04 10:09
Airport Brussels Airport (EBBR)

Arrival

Time N/A
Airport Zürich Airport (LSZH)
Time Latitude Longitude Altitude Speed Heading
2026-05-04 09:40 50.89869 4.46993 134 ft 0 kts 335°
2026-05-04 09:57 50.89861 4.46998 134 ft 3 kts 335°
2026-05-04 09:57 50.89844 4.47011 134 ft 3 kts 335°
2026-05-04 09:57 50.89827 4.47023 130 ft 3 kts 335°
2026-05-04 09:57 50.89810 4.47036 133 ft 3 kts 335°
2026-05-04 09:58 50.89792 4.47048 133 ft 3 kts 335°
2026-05-04 09:58 50.89785 4.47054 133 ft 0 kts 335°
2026-05-04 10:02 50.89837 4.47159 127 ft 7 kts 62°
2026-05-04 10:04 50.90307 4.47632 126 ft 17 kts 65°
2026-05-04 10:04 50.90358 4.47803 120 ft 17 kts 65°
2026-05-04 10:04 50.90409 4.47974 122 ft 17 kts 64°
2026-05-04 10:04 50.90459 4.48147 126 ft 17 kts 66°
2026-05-04 10:05 50.90507 4.48321 121 ft 17 kts 67°
2026-05-04 10:05 50.90555 4.48493 122 ft 17 kts 66°
2026-05-04 10:05 50.90605 4.48666 125 ft 17 kts 65°
2026-05-04 10:05 50.90656 4.48836 123 ft 17 kts 65°
2026-05-04 10:06 50.90707 4.49008 125 ft 17 kts 65°
2026-05-04 10:06 50.90758 4.49180 126 ft 17 kts 65°
2026-05-04 10:06 50.90808 4.49350 125 ft 17 kts 65°
2026-05-04 10:08 50.91041 4.49912 124 ft 16 kts 26°
2026-05-04 10:08 50.91081 4.49936 124 ft 1 kts
2026-05-04 10:08 50.91109 4.49926 121 ft 11 kts 329°
2026-05-04 10:08 50.91112 4.49769 124 ft 0 kts 242°
2026-05-04 10:09 50.91037 4.49539 124 ft 67 kts 245°
2026-05-04 10:09 50.90694 4.48344 129 ft 165 kts 246°
2026-05-04 10:09 50.90291 4.46687 1138 ft 161 kts 252°
2026-05-04 10:10 50.89961 4.44955 2085 ft 173 kts 245°
2026-05-04 10:10 50.89437 4.43062 2403 ft 205 kts 263°
2026-05-04 10:10 50.89762 4.40726 2750 ft 239 kts 304°
2026-05-04 10:10 50.91101 4.39076 3456 ft 254 kts 333°
2026-05-04 10:11 50.92538 4.37412 4220 ft 264 kts 304°
2026-05-04 10:11 50.93090 4.34684 5306 ft 264 kts 268°
2026-05-04 10:11 50.92539 4.31931 6364 ft 267 kts 233°
2026-05-04 10:11 50.91094 4.30152 7396 ft 272 kts 200°
2026-05-04 10:12 50.89261 4.29391 8273 ft 275 kts 202°
2026-05-04 10:12 50.87644 4.27726 9131 ft 279 kts 220°
2026-05-04 10:12 50.86164 4.25740 10135 ft 281 kts 221°
2026-05-04 10:12 50.84659 4.23660 11022 ft 294 kts 221°
2026-05-04 10:13 50.82898 4.21806 11291 ft 322 kts 201°
2026-05-04 10:13 50.80587 4.21266 11573 ft 355 kts 174°
2026-05-04 10:13 50.78191 4.22492 12355 ft 369 kts 153°
2026-05-04 10:13 50.76215 4.25090 13319 ft 382 kts 130°
2026-05-04 10:14 50.74926 4.28803 14419 ft 391 kts 111°
2026-05-04 10:14 50.74425 4.33066 15436 ft 397 kts 94°
2026-05-04 10:16 50.62375 4.53568 20630 ft 418 kts 141°
2026-05-04 10:16 50.60215 4.56694 21452 ft 423 kts 141°
2026-05-04 10:16 50.58066 4.59815 22203 ft 428 kts 141°
2026-05-04 10:16 50.55852 4.63012 22994 ft 432 kts 141°
2026-05-04 10:17 50.53615 4.66217 23739 ft 437 kts 142°
2026-05-04 10:17 50.51351 4.69437 24459 ft 441 kts 142°
2026-05-04 10:19 50.34865 4.92590 28903 ft 467 kts 143°
2026-05-04 10:19 50.32449 4.95963 29454 ft 470 kts 144°
2026-05-04 10:19 50.30001 4.99375 29944 ft 473 kts 144°
2026-05-04 10:19 50.27530 5.02816 30487 ft 474 kts 144°
2026-05-04 10:20 50.25066 5.06245 31126 ft 472 kts 144°
2026-05-04 10:20 50.22651 5.09602 31756 ft 470 kts 144°
2026-05-04 10:20 50.20203 5.13000 32321 ft 470 kts 144°
2026-05-04 10:20 50.17755 5.16391 32843 ft 470 kts 144°
2026-05-04 10:21 50.15300 5.19784 33366 ft 469 kts 144°
2026-05-04 10:21 50.12853 5.23160 33903 ft 467 kts 143°
2026-05-04 10:21 50.10453 5.26467 34406 ft 466 kts 143°
2026-05-04 10:21 50.08018 5.29817 34887 ft 466 kts 143°
2026-05-04 10:22 50.03092 5.36575 35019 ft 472 kts 143°
2026-05-04 10:22 50.00638 5.39942 35019 ft 469 kts 143°
2026-05-04 10:23 49.95811 5.46550 35014 ft 463 kts 143°
2026-05-04 10:25 49.76453 5.72834 35013 ft 464 kts 143°
2026-05-04 10:25 49.71608 5.79370 35016 ft 465 kts 143°
2026-05-04 10:26 49.66737 5.85926 35007 ft 460 kts 143°
2026-05-04 10:26 49.64353 5.89133 34925 ft 449 kts 143°
2026-05-04 10:26 49.62020 5.92267 34851 ft 439 kts 144°
2026-05-04 10:27 49.57529 5.98279 34721 ft 420 kts 144°
2026-05-04 10:27 49.53192 6.04062 34650 ft 408 kts 144°
2026-05-04 10:27 49.51007 6.06964 34671 ft 419 kts 144°
2026-05-04 10:28 49.48754 6.09952 34680 ft 432 kts 144°
2026-05-04 10:28 49.46471 6.12963 34676 ft 443 kts 145°
2026-05-04 10:28 49.44058 6.16007 34677 ft 453 kts 146°
2026-05-04 10:29 49.39043 6.22147 34715 ft 468 kts 146°
2026-05-04 10:29 49.33945 6.28395 35026 ft 466 kts 146°
2026-05-04 10:30 49.28899 6.34606 35021 ft 465 kts 146°
2026-05-04 10:30 49.23848 6.40816 35019 ft 464 kts 146°
2026-05-04 10:31 49.18830 6.46965 35020 ft 464 kts 146°
2026-05-04 10:32 49.01093 6.68518 35014 ft 464 kts 149°
2026-05-04 10:33 48.95554 6.73441 35017 ft 457 kts 159°
2026-05-04 10:33 48.89694 6.76990 35021 ft 454 kts 163°
2026-05-04 10:34 48.83790 6.80415 35020 ft 455 kts 163°
2026-05-04 10:34 48.77874 6.83878 35022 ft 454 kts 163°
2026-05-04 10:35 48.72003 6.87333 35020 ft 455 kts 163°
2026-05-04 10:35 48.66149 6.90779 34413 ft 449 kts 163°
2026-05-04 10:36 48.63230 6.92494 33708 ft 448 kts 163°
2026-05-04 10:36 48.60349 6.94184 32954 ft 448 kts 163°
2026-05-04 10:36 48.57453 6.95884 32356 ft 443 kts 163°
2026-05-04 10:36 48.54573 6.97571 31745 ft 440 kts 163°
2026-05-04 10:37 48.51719 6.99239 31139 ft 437 kts 163°
2026-05-04 10:37 48.48927 7.00868 30562 ft 433 kts 163°
2026-05-04 10:37 48.46109 7.02509 29980 ft 430 kts 163°
2026-05-04 10:37 48.43334 7.04123 29388 ft 427 kts 163°
2026-05-04 10:39 48.27093 7.13537 25941 ft 408 kts 162°
2026-05-04 10:39 48.24445 7.15065 25398 ft 406 kts 162°
2026-05-04 10:39 48.21810 7.16585 24835 ft 403 kts 162°
2026-05-04 10:40 48.19201 7.18087 24289 ft 400 kts 162°
2026-05-04 10:40 48.16602 7.19583 23765 ft 398 kts 162°
2026-05-04 10:40 48.14038 7.21057 23227 ft 396 kts 162°
2026-05-04 10:40 48.11477 7.22530 22709 ft 393 kts 162°
2026-05-04 10:41 48.08942 7.23986 22183 ft 390 kts 161°
2026-05-04 10:41 48.06412 7.25437 21679 ft 388 kts 161°
2026-05-04 10:41 48.03896 7.26877 21149 ft 385 kts 161°
2026-05-04 10:41 48.01407 7.28301 20668 ft 382 kts 162°
2026-05-04 10:42 47.98929 7.29715 20152 ft 380 kts 161°
2026-05-04 10:42 47.96456 7.31126 19652 ft 377 kts 161°
2026-05-04 10:42 47.94038 7.32506 19154 ft 375 kts 161°
2026-05-04 10:42 47.91611 7.33890 18662 ft 372 kts 161°
2026-05-04 10:43 47.89197 7.35263 18160 ft 370 kts 161°
2026-05-04 10:44 47.72806 7.44599 14727 ft 349 kts 161°
2026-05-04 10:45 47.70578 7.45867 14276 ft 345 kts 161°
2026-05-04 10:45 47.68346 7.47134 13796 ft 339 kts 160°
2026-05-04 10:45 47.66314 7.48807 13343 ft 334 kts 141°
2026-05-04 10:45 47.64840 7.51470 12929 ft 336 kts 121°
2026-05-04 10:46 47.63987 7.54712 12492 ft 337 kts 107°
2026-05-04 10:46 47.63790 7.58122 12053 ft 337 kts 90°
2026-05-04 10:46 47.64018 7.61583 11630 ft 335 kts 86°
2026-05-04 10:46 47.64309 7.65023 11199 ft 333 kts 85°
2026-05-04 10:47 47.64597 7.68398 10770 ft 330 kts 85°
2026-05-04 10:47 47.64872 7.71706 10617 ft 319 kts 85°
2026-05-04 10:47 47.65127 7.74871 10440 ft 294 kts 85°
2026-05-04 10:47 47.65354 7.77762 10325 ft 274 kts 85°
2026-05-04 10:49 47.66678 7.95841 8965 ft 222 kts 83°
2026-05-04 10:49 47.66831 7.98008 8790 ft 203 kts 83°
2026-05-04 10:50 47.66991 8.00077 8610 ft 201 kts 83°
2026-05-04 10:51 47.67805 8.12012 7317 ft 153 kts 83°
2026-05-04 10:52 47.67923 8.13571 7144 ft 152 kts 82°
2026-05-04 10:52 47.68036 8.15133 6991 ft 154 kts 83°
2026-05-04 10:52 47.68170 8.16710 6826 ft 151 kts 79°
2026-05-04 10:54 47.67402 8.27078 5664 ft 157 kts 133°
2026-05-04 10:54 47.66623 8.28227 5365 ft 155 kts 131°
2026-05-04 10:56 47.61301 8.35710 4140 ft 149 kts 136°
2026-05-04 10:56 47.60546 8.36716 3999 ft 143 kts 136°
2026-05-04 10:56 47.59803 8.37718 4012 ft 145 kts 136°
2026-05-04 10:57 47.59063 8.38727 4022 ft 146 kts 136°
2026-05-04 10:57 47.58323 8.39746 4018 ft 146 kts 135°
2026-05-04 10:57 47.57539 8.40832 3867 ft 165 kts 137°
2026-05-04 10:57 47.56742 8.41913 3666 ft 146 kts 135°
2026-05-04 10:58 47.56018 8.42911 3517 ft 145 kts 136°
2026-05-04 10:58 47.55274 8.43930 3299 ft 143 kts 136°
2026-05-04 10:58 47.54545 8.44934 3116 ft 144 kts 136°
2026-05-04 10:58 47.53807 8.45946 2921 ft 144 kts 135°
2026-05-04 10:59 47.53077 8.46944 2720 ft 140 kts 135°
2026-05-04 10:59 47.52373 8.47907 2560 ft 141 kts 135°
2026-05-04 10:59 47.51888 8.48575 2416 ft 143 kts 135°
2026-05-04 10:59 47.50925 8.49891 2166 ft 141 kts 135°
2026-05-04 11:00 47.50202 8.50883 1990 ft 142 kts 135°